Погода Большерецкий

Погода Большерецкий : погода сейчас, прогноз погоды и архив. Всё, что Вы хотите узнать о погоде Большерецкий!

Поиск расширенной информации на нашем сайте:

Другие новости

Новости СМИ2

Главная страница сайта

Новости сайта

03.07.2017

Напоминаем, что на нашем специализированном сайте Метеоцентр.Азия вы можете получить высокодетализированные автоматические прогнозы погоды по пунктам России, СНГ и мира в авиационном формате (включающие направление и скорость ветра, видимость, явления погоды, количество и форму облачности, нижнюю и верхнюю границу облачности).

Рекомендуем: Описание курсы английского языка по skype у нас на сайте.

Погода Большерецкий - сегодня

Время (UTC), дата Ветер
(°,м/с) 
Видим.   Явления Облачность Т
(°С)
Тd
(°С)
f(%) Тe
(°С)
Pmin
(гПа)
dP
(гПа)
Po
(мм)
O2
(г/м3)
Тmin Tmax R s Состояние
почвы
15 19.11.17 210 (ЮЗ) 8-18{24}  10 км  слаб. ливневой дождь  10/10 600 м кучево-дожд. 
[Cb cap]
+4 +3.5 97 +1  991.4  2.3  741  294           
18 19.11.17 220 (ЮЗ) 7-12{15}  10 км  слаб. ливневой дождь  10/10 600 м кучево-дожд. 
[Cb cap]
+1.3 -1.3 83 -2  998.6  7.1  746  299           
21 19.11.17 220 (ЮЗ) 5-10{16}  10 км  слаб. ливневой снег  9/9 600 м кучево-дожд. 
[Cb cap]
+0.6 -3.7 73 -2  1001.2  2.5  748  301  -0.3    равномерный
мокрый или
старый снег
100% 
00 20.11.17 260 (З) 5{11}  10 км  слаб. ливневой снег  9/9 600 м кучево-дожд. 
[Cb cap]
+0.8 -4.2 69 -2  1003.7  2.5  750  302  -1.1         
03 20.11.17 260 (З) 7-15{15}  20000 м  слаб. ливневой снег  9/9 600 м кучево-дожд. 
[Cb cap]
-1.1 -4.1 80 -5  1005.6  1.8  751  304           
06 20.11.17 310 (СЗ) 2{15}  20000 м  {ливн. осадки}  3/3 600 м 
[Sc]
-2.4 -9 60 -3  1006.6  0.9  752  307           
09 20.11.17 120 (ЮВ) 20000 м    10/10 600 м 
[Sc]
-2.9 -5.7 81 -4  1007.1  0.5  752  307    +1.4  0.3     
12 20.11.17 160 (Ю) 10 км  слаб. ливневой снег  10/10 600 м кучево-дожд. 
[Cb cap]
-2.8 -4.1 91 -6  1007.4  0.3  753  307           
15 20.11.17 150 (ЮВ) 4-10{10}  10 км  слаб. ливневой снег  9/9 600 м кучево-дожд. 
[Cb cap]
-2.8 -3.5 95 -6  1007.8  0.4  753  307           
18 20.11.17 150 (ЮВ) 3{10}  10 км  слаб. ливневой снег  10/10 600 м кучево-дожд. 
[Cb cap]
-3.1 -3.2 99 -5  1008.8  754  308           
21 20.11.17 150 (ЮВ) 10 км  слаб. ливневой снег  9/9 600 м кучево-дожд. 
[Cb cap]
-2.9 -3.5 96 -6  1009.8  755  308  -3.4    равномерный
сухой снег
100% 
00 21.11.17 150 (ЮВ) 5-10{11}  10 км  слаб. ливневой снег  10/10 300 м кучево-дожд. 
[Cb cap]
-2.2 -2.2 100 -6  1009  -0.8  754  307           
03 21.11.17 210 (ЮЗ) 5-10{18}  0500 м  ливневой снег  10/10 300 м кучево-дожд. 
[Cb cap]
+0.3 -1.6 87 -3  1008  -1  753  303           
06 21.11.17 190 (Ю) 6-11{14}  10 км  слаб. ливневой снег  10/10 600 м кучево-дожд. 
[Cb cap]
-0.9 -1.3 97 -5  1007.4  -0.6  753  304           
09 21.11.17 250 (З) 7-11{14}  1000 м  ливневой снег  10/10 300 м кучево-дожд. 
[Cb cap]
-2.3 -3.1 94 -7  1009.8  2.4  755  307    +1.3     
12 21.11.17 260 (З) 3{12}  10 км  слаб. ливневой снег  10/10 600 м кучево-дожд. 
[Cb cap]
-3 -9.4 61 -5  1010.5  0.6  755  309           
15 21.11.17 260 (З) 20000 м  {ливн. осадки}  8/8 600 м кучево-дожд. 
[Cb cap]
-4 -9.6 65 -6  1010.6  0.1  755  310           
18 21.11.17 260 (З) 5-10{10}  20000 м  {ливн. осадки}  9/9 600 м кучево-дожд. 
[Cb cap]
-4.2 -10.1 63 -8  1011.3  0.8  756  310           
21 21.11.17 280 (З) 5{11}  20000 м  в посл. час ливневой снег  9/9 600 м кучево-дожд. 
[Cb cap]
-5.2 -8.4 78 -9  1012.7  1.4  757  312  -5.8    0.6  равномерный
сухой снег
100% 
00 22.11.17 280 (З) 7{11}  20000 м  слаб. ливневой снег  8/8 600 м кучево-дожд. 
[Cb cap]
-4.8 -6.8 86 -10  1013.8  1.1  758  311  -6.3         
03 22.11.17 260 (З) 20000 м  {ливн. осадки}  8/8 600 м кучево-дожд. 
[Cb cap]
-3 -11 54 -7  1014.6  0.8  758  310           
06 22.11.17 250 (З) 20000 м  в посл. час ливневой снег  9/9 600 м кучево-дожд. 
[Cb cap]
-3.7 -7.6 74 -6  1016.6  1.9  760  311           
09 22.11.17 200 (Ю) 20000 м  слаб. ливневой снег  10/10 600 м кучево-дожд. 
[Cb cap]
-2.7 -7 72 -5  1017.9  1.4  761  310    -2.6     
12 22.11.17 140 (ЮВ) 20000 м  слаб. ливневой снег  10/10 600 м кучево-дожд. 
[Cb cap]
-4 -6.5 83 -8  1018.5  0.5  761  312           
15 22.11.17 160 (Ю) 8-12{14}  20000 м  {ливн. осадки}  10/10 600 м кучево-дожд. 
[Cb cap]
-2.7 -3.5 94 -8  1017.7  -0.7  760  310           
Время (UTC), дата Ветер
(°,м/с) 
Видим.   Явления Облачность Т
(°С)
Тd
(°С)
f(%) Тe
(°С)
Pmin
(гПа)
dP
(гПа)
Po
(мм)
O2
(г/м3)
Тmin Tmax R s Состояние
почвы

Для получения пояснительной информации подведите курсор к названию столбца.

ПОГОДА Большерецкий - архив

Всё, что Вы хотите узнать о погоде Большерецкий - удобно и подробно!

Выберите нужную дату (начиная с 1 января 2015* года) и нажмите кнопку "Найти".
Будут отображены архивные сводки погоды по пункту Большерецкий, начиная с указанной даты.


Отображать данные в формате CSV (для использования в таблицах Excel)


Внимание! Наш архив погоды предназначен исключительно для личного некоммерческого использования в познавательных целях. Если Вам необходимы официальные справки о состоянии погоды (для производственных, юридических, коммерческих и т.п. целей), обращайтесь в органы Росгидромета.

*Примечание: данная дата относится к архиву по метеостанциям СССР (Россия, СНГ, Балтия).
Архив по метеостанциям Зарубежной Европы и Азии (кроме Китая) хранится 10 дней, по другим регионам земного шара (Китай, Африка, Америка, Австралия, Океания) - 1 день.

Большерецкий - район местоположения метеостанции


Название, широта, долгота, высота метеостанции:
Большерецкий 52.9°ш. 156.6°д. 27 м над ур. моря [Российская Федерация]

Дополнительная информация

В oтличие oт бoльшинства пoгoдных сайтoв мы публикуем пoдрoбную метеoинфoрмацию в детальнoм прoфессиoнальнoм фoрмате.

Характеристики температуры и влажнoсти вoздуха измеряются на высoте 2 м в тени вдали oт зданий и деревьев.
Скoрoсть ветра измеряется на высoте 10 м (на урoвне рoста челoвека скoрoсть ветра ниже в 1.5-2 раза). Если метеoстанция нахoдится в гoрoде или в лесу, тo скoрoсть ветра занижена на 2-4 м/с пo сравнению с oткрытым местoм. Скoрoсть ветра над акватoриями крупных рек и oзёр, а также на вершинах хoлмoв на 2-5 м/с выше, чем в oбычных услoвиях.
Атмoсфернoе давление в разных тoчках местнoсти мoжет значительнo oтличаться oт давления на метеoстанции, в зависимoсти oт услoвий рельефа (при пoдъёме на 10 м давление пoнижается примернo на 1 мм рт.ст.).